Tracking 19575 objects as of 18-Feb-2019
HD Live streaming from Space Station
objects crossing your sky now

IRIDIUM 173

Track IRIDIUM 173 now!
10-day predictions
IRIDIUM 173 is classified as:


NORAD ID: 43925
Int'l Code: 2019-002D
Perigee: 783.4 km
Apogee: 786.2 km
Inclination: 86.4 °
Period: 100.4 minutes
Semi major axis: 7155 km
RCS: Unknown
Launch date: January 11, 2019
Source: United States (US)
Launch site: AIR FORCE WESTERN TEST RANGE (AFWTR)
aabbcc
Your satellite tracking list
Your tracking list is empty




NASA's NSSDC Master Catalog

Two Line Element Set (TLE):
1 43925U 19002D   19048.93609585 +.00000040 +00000-0 +70543-5 0  9990
2 43925 086.3967 031.9586 0001958 088.9246 271.2174 14.34217573005372
Source of the keplerian elements: AFSPC